Location: �mondeville
(49.4591°N, 1.3431°W)
Time: 19:12:47
(UTC+00:00)

ERBS - Pass Details

Date: 22 October 2019
Orbit: 413 x 429 km, 57.0° (Epoch: 18 November)

Event Time Altitude Azimuth Distance (km) Brightness Sun altitude
Exits shadow 04:19:22 34° 23° (NNE) 720 3.6 -22.9°
Drops below altitude 10° 04:21:38 10° 49° (NE) 1,519 5.9 -22.6°
Sets 04:23:48 0° 56° (NE) 2,391 7.2 -22.2°
